Preview of NWS' New Version of Forecast
This preview is not operational and should not be used for support decisions.
Latest weather observations around

EW3298 Indio (E3298)

Using English Units (Switch to International System of Units)
Date/ Time (PST) Wind (mph) Vis. (mi) Weather Sky Cond. Temp (°F) Rel. Humidity Wind Chill (°F) Heat Index (°F) Pressure Precip. (in)
Air Dwpt 6 hour Altimeter (inHg) Sea level (inHg) 1 hr 3 hr 6 hr
Max Min
Jan 21 02:01 Calm   Clear   55 47     73%     29.84        
Jan 21 01:46 Calm   Clear   57 48     71%     29.86        
Jan 21 01:31 NW 5   Clear   56 47     72%     29.86        
Jan 21 01:16 N 1   Clear   54 48     79%     29.85        
Jan 21 01:02 NNW 5   Clear   54 48     80%     29.85        
Jan 21 00:46 Calm   Clear   54 48     81%     29.86        
Jan 21 00:30 Calm   Clear   54 48     81%     29.86        
Jan 21 00:01 Calm   Clear   54 49     82%     29.87        
Jan 20 23:45 Calm   Clear   55 49     80%     29.88        
Jan 20 23:30 Calm   Clear   55 49     80%     29.88        
Jan 20 23:15 Calm   Clear   55 49     80%     29.89        
Jan 20 23:00 Calm   Clear   56 50     79%     29.89        
Jan 20 22:45 Calm   Clear   56 49     78%     29.89        
Jan 20 22:30 Calm   Clear   56 49     77%     29.89        
Jan 20 22:15 Calm   Clear   57 50     76%     29.9        
Jan 20 22:00 Calm   Clear   58 50     75%     29.91        
Jan 20 21:46 Calm   Clear   58 50     75%     29.91        
Jan 20 21:30 Calm   Clear   58 50     75%     29.91        
Jan 20 21:15 Calm   Clear   58 50     75%     29.91        
Jan 20 21:00 Calm   Clear   59 50     73%     29.91        
Jan 20 20:45 Calm   Clear   59 50     72%     29.91        
Jan 20 20:30 Calm   Clear   60 51     72%     29.91        
Jan 20 20:15 Calm   Clear   60 51     73%     29.91        
Jan 20 20:00 Calm   Clear   60 51     71%     29.92        
Jan 20 19:45 Calm   Clear   61 51     69%     29.92        
Jan 20 19:30 Calm   Clear   61 50     68%     29.93        
Jan 20 19:15 Calm   Clear   62 51     66%     29.93        
Jan 20 19:00 Calm   Clear   63 51     64%     29.93        
Jan 20 18:45 Calm   Clear   63 50     62%     29.94        
Jan 20 18:30 Calm   Clear   64 49     59%     29.94        
Jan 20 18:15 Calm   Clear   65 49     57%     29.94        
Jan 20 17:45 Calm   Clear   66 47     51%     29.94        
Jan 20 17:30 Calm   Clear   67 48     50%     29.94        
Jan 20 17:15 Calm   Clear   68 46     46%     29.93        
Jan 20 17:00 Calm   Clear   69 47     45%     29.93        
Jan 20 16:45 Calm   Clear   69 47     45%     29.93        
Jan 20 16:30 Calm   Clear   70 46     43%     29.92        
Jan 20 16:15 NW 1   Clear   70 45     40%     29.92        
Jan 20 16:00 Calm   Clear   71 45     39%   70 29.93        
Jan 20 15:46 NW 4   Clear   71 44     38%   70 29.94        
Jan 20 15:31 NW 2   Clear   72 44     36%   71 29.95        
Jan 20 15:16 Calm   Clear   72 45     38%   71 29.96        
Jan 20 15:01 Calm   Clear   72 44     37%   71 29.96        
Jan 20 14:46 Calm   Clear   72 44     37%   71 29.96        
Jan 20 14:31 Calm   Clear   72 42     34%   70 29.97        
Jan 20 14:17 Calm   Clear   72 44     37%   71 29.97        
Jan 20 14:01 Calm   Clear   72 45     38%   71 29.97        
Jan 20 13:46 NW 3   Clear   71 45     39%   70 29.98        
Jan 20 13:31 NW 1   Clear   71 46     41%   70 29.99        
Jan 20 13:15 NW 1   Clear   70 46     42%     29.99        
Jan 20 13:01 Calm   Clear   69 46     43%     30        
Jan 20 12:45 NW 1   Clear   69 47     45%     30.02        
Jan 20 12:30 Calm   Clear   68 47     47%     30.02        
Jan 20 12:15 NW 1   Clear   68 46     45%     30.03        
Jan 20 12:00 Calm   Clear   68 46     46%     30.05        
Jan 20 11:45 NW 1   Clear   67 47     48%     30.06        
Jan 20 11:30 Calm   Clear   67 47     48%     30.07        
Jan 20 11:15 Calm   Clear   66 47     51%     30.09        
Jan 20 11:00 Calm   Clear   64 47     55%     30.1        
Jan 20 10:30 Calm   Clear   61 47     60%     30.11        
Jan 20 10:15 Calm   Clear   60 47     63%     30.12        
Jan 20 10:02 Calm   Clear   59 47     64%     30.12        
Jan 20 09:46 Calm   Clear   58 47     67%     30.12        
Jan 20 09:31 Calm   Clear   57 47     68%     30.11        
Jan 20 09:16 Calm   Clear   56 46     70%     30.11        
Jan 20 09:01 Calm   Clear   55 46     72%     30.11        
Jan 20 08:46 Calm   Clear   54 46     75%     30.12        
Jan 20 08:31 Calm   Clear   53 46     76%     30.12        
Jan 20 08:16 Calm   Clear   53 46     77%     30.12        
Jan 20 08:01 Calm   Clear   52 46     79%     30.12        
Jan 20 07:46 Calm   Clear   51 45     80%     30.12        
Jan 20 07:30 Calm   Clear   50 45     82%     30.13        
Jan 20 07:16 Calm   Clear   49 44     83%     30.13        
Jan 20 07:01 Calm   Clear   49 44     83%     30.12        
Jan 20 06:46 Calm   Clear   49 44     83%     30.11        
Jan 20 06:31 Calm   Clear   49 44     83%     30.11        
Jan 20 06:16 Calm   Clear   49 44     83%     30.1        
Jan 20 06:01 Calm   Clear   49 44     83%     30.1        
Jan 20 05:46 Calm   Clear   49 44     84%     30.1        
Jan 20 05:31 Calm   Clear   49 44     84%     30.1        
Jan 20 05:16 Calm   Clear   49 44     82%     30.09        
Jan 20 05:00 Calm   Clear   50 44     81%     30.1        
Jan 20 04:46 Calm   Clear   50 44     81%     30.1        
Jan 20 04:16 Calm   Clear   50 44     80%     30.11        
Jan 20 04:01 Calm   Clear   51 45     79%     30.11        
Jan 20 03:45 Calm   Clear   52 45     77%     30.11        
Jan 20 03:32 Calm   Clear   53 45     75%     30.11        
Jan 20 03:15 Calm   Clear   53 45     75%     30.12        
Jan 20 03:01 Calm   Clear   52 45     77%     30.12        
Jan 20 03:00 Calm   Clear   52 45     77%     30.12        
Jan 20 02:45 Calm   Clear   52 45     78%     30.13        
Jan 20 02:30 Calm   Clear   53 46     76%     30.14        
Jan 20 02:15 Calm   Clear   54 46     74%     30.14        
Jan 20 02:00 Calm   Clear   53 46     76%     30.15        
Jan 20 01:45 Calm   Clear   53 46     78%     30.15        
Jan 20 01:30 Calm   Clear   53 47     79%     30.16        
Jan 20 01:15 Calm   Clear   53 47     80%     30.16        
Jan 20 01:00 Calm   Clear   53 47     80%     30.16        
Jan 20 00:45 Calm   Clear   54 48     79%     30.17        
Jan 20 00:30 Calm   Clear   54 47     77%     30.18        
Jan 20 00:19 Calm   Clear   55 47     75%     30.18        
Jan 20 00:01 Calm   Clear   56 47     73%     30.19        
Jan 19 23:46 Calm   Clear   56 48     74%     30.19        
Jan 19 23:31 Calm   Clear   55 47     74%     30.19        
Jan 19 23:16 Calm   Clear   56 48     75%     30.2        
Jan 19 23:01 Calm   Clear   56 48     75%     30.21        
Jan 19 22:46 Calm   Clear   55 47     75%     30.21        
Jan 19 22:33 Calm   Clear   56 48     74%     30.21        
Jan 19 22:16 Calm   Clear   56 47     73%     30.21        
Jan 19 22:01 Calm   Clear   56 47     72%     30.21        
Jan 19 21:46 Calm   Clear   57 47     70%     30.2        
Jan 19 21:31 Calm   Clear   58 48     69%     30.2        
Jan 19 21:01 Calm   Clear   59 48     66%     30.19        
Jan 19 20:46 Calm   Clear   59 48     66%     30.19        
Jan 19 20:31 Calm   Clear   59 48     67%     30.2        
Jan 19 20:16 Calm   Clear   59 48     66%     30.2        
Jan 19 20:02 Calm   Clear   60 48     65%     30.2        
Jan 19 19:46 Calm   Clear   60 48     65%     30.19        
Jan 19 19:31 Calm   Clear   61 49     64%     30.2        
Jan 19 19:16 Calm   Clear   62 49     63%     30.19        
Jan 19 19:01 Calm   Clear   62 49     62%     30.19        
Jan 19 18:46 Calm   Clear   63 49     61%     30.19        
Jan 19 18:31 Calm   Clear   64 48     57%     30.18        
Jan 19 18:16 Calm   Clear   65 49     56%     30.18        
Jan 19 18:02 Calm   Clear   66 48     53%     30.18        
Jan 19 17:46 Calm   Clear   67 48     50%     30.18        
Jan 19 17:31 Calm   Clear   69 47     46%     30.18        
Jan 19 17:15 Calm   Clear   70 46     43%     30.18        
Jan 19 17:02 Calm   Clear   71 46     41%   70 30.18        
Jan 19 16:46 Calm   Clear   72 46     39%   71 30.18        
Jan 19 16:32 Calm   Clear   73 44     36%   72 30.18        
Jan 19 16:16 Calm   Clear   73 42     33%   72 30.18        
Jan 19 16:01 Calm   Clear   73 43     34%   72 30.19        
Jan 19 15:47 Calm   Clear   73 44     35%   72 30.2        
Jan 19 15:30 Calm   Clear   73 44     35%   72 30.2        
Jan 19 15:16 Calm   Clear   74 45     35%   73 30.21        
Jan 19 14:45 Calm   Clear   74 42     32%   73 30.21        
Jan 19 14:30 Calm   Clear   74 43     33%   73 30.22        
Jan 19 14:16 Calm   Clear   73 43     34%   72 30.22        
Jan 19 14:00 Calm   Clear   73 44     35%   72 30.23        
Jan 19 13:45 Calm   Clear   73 43     34%   72 30.23        
Jan 19 13:30 Calm   Clear   72 44     36%   71 30.24        
Jan 19 13:15 Calm   Clear   73 44     36%   72 30.25        
Jan 19 13:00 Calm   Clear   72 44     37%   71 30.27        
Jan 19 12:45 Calm   Clear   71 44     38%   70 30.27        
Jan 19 12:30 Calm   Clear   70 45     40%     30.29        
Jan 19 12:15 NW 2   Clear   70 44     39%     30.29        
Jan 19 11:46 Calm   Clear   70 44     39%     30.31        
Jan 19 11:31 Calm   Clear   69 44     40%     30.32        
Jan 19 11:16 Calm   Clear   68 43     41%     30.33        
Jan 19 11:01 Calm   Clear   67 46     46%     30.34        
Jan 19 10:46 Calm   Clear   66 46     48%     30.34        
Jan 19 10:31 NW 2   Clear   65 44     47%     30.35        
Jan 19 10:16 Calm   Clear   65 46     50%     30.35        
Jan 19 10:01 Calm   Clear   63 45     52%     30.35        
Jan 19 09:46 Calm   Clear   62 45     54%     30.35        
Jan 19 09:30 Calm   Clear   61 45     56%     30.35        
Jan 19 09:16 Calm   Clear   60 46     60%     30.36        
Jan 19 09:01 Calm   Clear   58 45     63%     30.35        
Jan 19 08:45 Calm   Clear   56 46     68%     30.36        
Jan 19 08:30 Calm   Clear   55 45     69%     30.35        
Jan 19 08:15 Calm   Clear   54 46     73%     30.35        
Jan 19 08:00 Calm   Clear   52 44     75%     30.34        
Jan 19 07:16 Calm   Clear   48 42     81%     30.33        
Jan 19 07:00 Calm   Clear   48 43     82%     30.32        
Jan 19 06:46 Calm   Clear   48 42     81%     30.32        
Jan 19 06:15 Calm   Clear   48 42     81%     30.31        
Jan 19 06:00 Calm   Clear   48 43     82%     30.31        
Jan 19 05:45 Calm   Clear   48 43     83%     30.3        
Jan 19 05:30 Calm   Clear   48 43     82%     30.29        
Jan 19 05:15 Calm   Clear   49 43     81%     30.29        
Jan 19 05:00 Calm   Clear   50 44     79%     30.28        
Jan 19 04:45 Calm   Clear   50 44     80%     30.28        
Jan 19 04:15 Calm   Clear   49 45     85%     30.28        
Jan 19 04:00 Calm   Clear   49 45     85%     30.28        
Jan 19 03:45 Calm   Clear   49 44     84%     30.28        
Jan 19 03:30 Calm   Clear   50 45     83%     30.28        
Jan 19 03:01 Calm   Clear   50 45     83%     30.29        
Jan 19 02:46 Calm   Clear   50 45     82%     30.29        
Jan 19 02:31 Calm   Clear   51 45     80%     30.28        
Jan 19 02:16 Calm   Clear   52 46     79%     30.29        
Jan 19 02:01 Calm   Clear   52 46     79%     30.29        
Jan 19 01:46 Calm   Clear   52 46     80%     30.29        
Jan 19 01:32 Calm   Clear   52 46     79%     30.29        
Jan 19 01:16 Calm   Clear   53 46     78%     30.28        
Jan 19 01:01 Calm   Clear   53 47     80%     30.28        
Jan 19 00:46 Calm   Clear   53 47     80%     30.28        
Jan 19 00:31 Calm   Clear   53 47     81%     30.28        
Jan 19 00:16 Calm   Clear   53 47     81%     30.28        
Jan 19 00:01 Calm   Clear   54 48     80%     30.28        
Jan 18 23:46 Calm   Clear   54 48     80%     30.28        
Jan 18 23:31 Calm   Clear   54 49     82%     30.29        
Jan 18 23:16 Calm   Clear   54 48     81%     30.29        
Jan 18 23:01 Calm   Clear   55 49     81%     30.29        
Jan 18 22:46 Calm   Clear   55 49     79%     30.29        
Jan 18 22:31 Calm   Clear   56 49     76%     30.29        
Jan 18 22:15 Calm   Clear   57 49     74%     30.28        
Jan 18 22:01 Calm   Clear   57 50     76%     30.28        
Jan 18 21:45 Calm   Clear   57 50     77%     30.27        
Jan 18 21:30 Calm   Clear   58 50     76%     30.26        
Jan 18 21:01 Calm   Clear   58 50     75%     30.25        
Jan 18 20:46 Calm   Clear   59 51     74%     30.25        
Jan 18 20:30 Calm   Clear   59 50     73%     30.24        
Jan 18 20:15 Calm   Clear   60 50     70%     30.24        
Jan 18 20:00 Calm   Clear   61 51     69%     30.23        
Jan 18 19:45 Calm   Clear   62 51     66%     30.23        
Jan 18 19:30 Calm   Clear   63 51     64%     30.22        
Jan 18 19:15 Calm   Clear   63 50     63%     30.22        
Jan 18 19:00 Calm   Clear   64 51     62%     30.21        
Jan 18 18:45 Calm   Clear   64 51     62%     30.21        
Jan 18 18:30 Calm   Clear   65 51     61%     30.2        
Jan 18 18:15 Calm   Clear   65 51     60%     30.19        
Jan 18 18:00 Calm   Clear   66 51     58%     30.19        
Jan 18 17:45 Calm   Clear   67 50     55%     30.18        
Jan 18 17:30 Calm   Clear   67 50     54%     30.18        
Jan 18 17:15 Calm   Clear   68 50     52%     30.17        
Jan 18 17:00 Calm   Clear   69 50     50%     30.16        
Jan 18 16:45 Calm   Clear   70 50     49%     30.16        
Jan 18 16:30 Calm   Clear   71 50     47%   70 30.16        
Jan 18 16:15 Calm   Clear   71 49     46%   70 30.16        
Jan 18 16:00 Calm   Clear   72 49     45%   71 30.16        
Jan 18 15:33 Calm   Clear   72 49     44%   71 30.16        
Jan 18 15:17 Calm   Clear   72 49     45%   71 30.16        
Jan 18 14:47 NW 2   Clear   72 49     45%   71 30.15        
Jan 18 14:31 NW 2   Clear   71 49     46%   70 30.15        
Jan 18 14:16 NW 1   Clear   71 50     48%   70 30.15        
Jan 18 14:02 NW 5   Clear   71 51     50%   70 30.14        
Jan 18 13:46 WNW 2   Clear   71 50     48%   70 30.14        
Jan 18 13:31 WNW 1   Clear   71 50     48%   70 30.14        
Jan 18 13:16 WNW 3   Clear   70 50     50%     30.14        
Jan 18 13:01 WNW 3   Clear   70 51     51%     30.15        
Jan 18 12:46 W 7   Clear   70 52     52%     30.14        
Jan 18 12:32 W 6   Clear   69 51     52%     30.15        
Jan 18 12:16 W 5   Clear   68 51     54%     30.16        
Jan 18 12:01 W 5   Clear   68 51     54%     30.17        
Jan 18 11:46 W 5   Clear   68 50     53%     30.17        
Jan 18 11:30 Calm   Clear   68 53     58%     30.18        
Jan 18 11:16 W 6   Clear   66 51     59%     30.19        
Jan 18 11:00 W 5   Clear   66 53     62%     30.19        
Jan 18 10:45 Calm   Clear   65 53     64%     30.2        
Jan 18 10:30 W 2   Clear   65 52     63%     30.19        
Jan 18 10:15 W 2   Clear   64 52     66%     30.19        
Jan 18 10:01 W 2   Clear   63 53     70%     30.18        
Jan 18 09:45 W 2   Clear   62 54     75%     30.18        
Jan 18 09:30 Calm   Clear   61 53     75%     30.17        
Jan 18 09:15 Calm   Clear   59 53     80%     30.16        
Jan 18 09:00 Calm   Clear   58 54     85%     30.16        
Jan 18 08:45 W 1   Clear   56 52     86%     30.16        
Jan 18 08:30 Calm   Clear   55 52     89%     30.15        
Jan 18 08:15 Calm   Clear   54 51     89%     30.15        
Jan 18 08:00 Calm   Clear   54 51     88%     30.14        
Jan 18 07:31 Calm   Clear   52 49     89%     30.13        
Jan 18 07:17 Calm   Clear   52 49     89%     30.13        
Jan 18 07:02 Calm   Clear   53 50     88%     30.13        
Jan 18 06:47 Calm   Clear   54 50     86%     30.12        
Jan 18 06:32 Calm   Clear   54 50     86%     30.11        
Jan 18 06:16 Calm   Clear   54 50     87%     30.11        
Jan 18 06:01 Calm   Clear   55 51     85%     30.1        
Jan 18 05:46 Calm   Clear   55 51     86%     30.1        
Jan 18 05:32 Calm   Clear   55 50     83%     30.09        
Jan 18 05:17 Calm   Clear   57 50     77%     30.08        
Jan 18 05:01 Calm   Clear   58 51     77%     30.07        
Jan 18 04:48 W 1   Clear   58 52     80%     30.07        
Jan 18 04:31 SSW 3   Clear   55 52     89%     30.07        
Jan 18 04:16 Calm   Clear   52 51     96%     30.07        
Jan 18 04:01 Calm   Clear   51 50     95%     30.07        
Jan 18 03:46 Calm   Clear   51 50     95%     30.08        
Jan 18 03:32 Calm   Clear   51 50     95%     30.09        
Jan 18 03:16 Calm   Clear   51 49     94%     30.08        
Jan 18 03:01 Calm   Clear   52 50     94%     30.08        
Jan 18 02:46 Calm   Clear   52 50     94%     30.08        
Jan 18 02:32 Calm   Clear   53 52     95%     30.09        
Jan 18 02:16 Calm   Clear   53 52     96%     30.09        
May 15 01:10 WNW 8   Clear   72 50     46%   71 29.82        
Notice The following observation data may not be complete
May 14 23:55     Clear            %              
Notice The following observation data may not be complete
May 14 18:56     Clear            %              
May 14 18:10 W 4   Clear   89        %     29.73        
May 14 15:55 Calm   Clear   88 27     11%   84 29.76        
Notice The following observation data may not be complete
May 14 10:39     Clear            %              
May 14 09:56 Calm   Clear   77 47     35%   76 29.86        
May 14 09:24 W 1   Clear   75 46     36%   74 29.86        
Notice The following observation data may not be complete
May 14 07:38     Clear            %              
May 14 00:07 NW 7   Clear   69 48     48%     29.83        
May 13 23:52 NW 4   Clear   69 48     47%     29.83        
Notice The following observation data may not be complete
May 13 21:52     Clear            %              
May 13 19:07 NW 8   Clear   80 44     28%   79 29.78        
Notice The following observation data may not be complete
May 13 15:52     Clear            %              
Notice The following observation data may not be complete
May 13 14:37     Clear            %              
May 13 14:22 W 2   Clear   82 45     27%   80 29.83        
May 13 12:22 Calm   Clear   78 44     30%   77 29.89        
May 13 12:07 NW 3   Clear   78 44     30%   77 29.89        
May 13 09:06 NW 7   Clear   71 47     42%   70 29.9        
May 13 07:06 NW 6   Clear   66 48     52%     29.87        
May 13 05:06 WNW 9   Clear   64 46     51%     29.83        
May 13 02:21 NNW 10   Clear   66 46     49%     29.8        
May 13 01:20 WNW 12   Clear   67 47     48%     29.82        
May 12 20:35 NW 11   Clear   71 45     40%   70 29.78        
May 12 19:05 NW 9   Clear   75 45     34%   74 29.75        
Notice The following observation data may not be complete
May 12 18:20 NNW 10   Clear     45      %     29.75        
May 12 16:35 WNW 7   Clear   82 44     26%   80 29.74        
May 12 14:35 WNW 1   Clear   82 44     26%   80 29.77        
May 12 13:35 W 6   Clear   80 45     29%   79 29.79        
Notice The following observation data may not be complete
May 12 12:50     Clear            %              
May 12 09:49 NW 10   Clear   72 45     38%   71 29.83        
May 12 07:34 NW 6   Clear   66 46     48%     29.81        
May 12 07:04 WNW 10   Clear   64 45     50%     29.8        
May 12 06:49 WNW 7   Clear   64 45     50%     29.79        
May 12 01:18 NW 14   Clear   65 46     50%     29.68        
May 12 00:33 NW 11   Clear   66 47     50%     29.67        
May 12 00:03 NW 11   Clear   66 46     49%     29.68        
May 11 18:02 NW 9   Clear   77 48     36%   76 29.57        
May 11 16:47 WNW 10   Clear   84 46     27%   82 29.57        
May 11 15:47 NNW 9   Clear   85 48     28%   83 29.57        
May 11 10:47 Calm   Clear   81 48     32%   80 29.67        
Jun 12 04:49 WNW 5   Clear   66 46     48%     29.83        
Jun 11 22:31 NNW 12   Clear   69 47     45%     29.79        
Jun 11 21:16 NW 10   Clear   72 47     41%   71 29.75        
Jun 11 19:01 NW 9   Clear   81 47     30%   80 29.69        
Jun 11 17:00 NW 9   Clear   86 43     22%   83 29.66        
Jun 11 16:30 NW 9   Clear   87 45     23%   84 29.67        
Jun 11 16:16 NNW 8   Clear   87 46     24%   84 29.67        
Jun 11 15:16 NW 11   Clear   86 44     23%   83 29.68        
Jun 11 12:45 NW 11   Clear   83 47     28%   81 29.72        
Jun 11 11:30 NW 7   Clear   81 47     31%   80 29.72        
Jun 11 10:30 WNW 9   Clear   79 47     33%   78 29.72        
Jun 11 05:14 WNW 2   Clear   67 47     48%     29.66        
Jun 11 04:59 NW 6   Clear   68 48     48%     29.65        
Jun 11 03:44 WNW 6   Clear   69 48     48%     29.64        
Jun 11 00:13 NW 9   Clear   73 50     44%   72 29.63        
Jun 10 22:13 NNW 13   Clear   75 50     42%   74 29.63        
Jun 10 21:43 NW 11   Clear   77 51     40%   76 29.62        
Jun 10 21:13 NNW 8   Clear   78 50     38%   77 29.62        
Jun 10 19:13 NW 11   Clear   85 52     32%   83 29.6        
Jun 10 18:28 NW 8   Clear   88 51     28%   85 29.59        
Jun 10 17:43 NW 16   Clear   90 47     23%   87 29.59        
Jun 10 16:43 WNW 5   Clear   94 41     16%   90 29.59        
Jun 10 14:43 WNW 2   Clear   94 41     16%   90 29.63        
Jun 10 10:14 W 4   Clear   85 47     27%   83 29.7        
Jun 10 09:12 WNW 7   Clear   83 47     28%   81 29.7        
Jun 09 21:56 NW 8   Clear   82 52     36%   81 29.67        
Jun 09 17:11 NW 2   Clear   99 51     20%   96 29.62        
Jun 09 14:25 Calm   Clear   99 40     13%   94 29.68        
Jun 09 13:55 WNW 4   Clear   99 40     13%   94 29.68        
Jun 09 07:39 W 2   Clear   79 50     37%   78 29.75        
Jun 09 02:54 WNW 9   Clear   80 42     26%   79 29.73        
Jun 09 00:39 NW 3   Clear   83 32     16%   80 29.73        
Jun 08 15:23 W 5   Clear   101 41     13%   96 29.72        
Jun 08 14:38 Calm   Clear   99 45     16%   95 29.74        
Jun 08 13:23 NW 1   Clear   95 45     18%   91 29.78        
Jun 08 12:07 Calm   Clear   91 51     26%   88 29.83        
Jun 08 08:07 Calm   Clear   77 55     47%   77 29.85        
Jun 08 07:52 Calm   Clear   76 55     48%   76 29.84        
Jun 08 06:52 Calm   Clear   74 56     54%   74 29.81        
Jun 08 05:36 WNW 2   Clear   73 55     53%   72 29.79        
Jun 08 03:51 W 10   Clear   75 55     49%   75 29.77        
Jun 08 02:36 WNW 9   Clear   77 54     45%   77 29.76        
Jun 07 23:51 WNW 7   Clear   82 54     38%   81 29.75        
Jun 07 22:51 WNW 6   Clear   84 56     38%   83 29.75        
Jun 07 20:06 Calm   Clear   95 43     17%   91 29.7        
Jun 07 15:50 SE 3   Clear   97 42     15%   93 29.73        
Jun 07 12:20 Calm   Clear   91 49     24%   88 29.81        
Jun 07 12:05 ESE 1   Clear   91 50     25%   88 29.82        
Jun 07 09:19 Calm   Clear   83 58     42%   83 29.83        
Notice The following observation data may not be complete
Jun 07 09:04 Calm   Clear     58      %     29.83        
Jun 06 07:32 Calm   Clear   81 55     41%   81 29.8        
Jun 06 07:17 Calm   Clear   81 55     41%   81 29.8        
Jun 06 07:02 Calm   Clear   80 55     42%   80 29.79        
Jun 05 23:46 Calm   Clear   87 55     34%   85 29.73        
Jun 05 22:46 Calm   Clear   90 53     29%   88 29.72        
Jun 05 20:46 Calm   Clear   97 54     24%   95 29.67        
Jun 05 20:31 Calm   Clear   98 55     24%   96 29.66        
Jun 05 15:46 S 7   Clear   102 46     15%   98 29.66        
Jun 05 15:01 Calm   Clear   103 46     15%   99 29.67        
Jun 05 14:46 SW 5   Clear   103 46     15%   99 29.67